Tracking 19245 objects as of 17-Aug-2018
HD Live streaming from Space Station
objects crossing your sky now

COSMOS 1506

Track COSMOS 1506 now!
10-day predictions
COSMOS 1506 is classified as:


NORAD ID: 14450
Int'l Code: 1983-108A
Perigee: 951.8 km
Apogee: 1,017.0 km
Inclination: 82.9 °
Period: 104.6 minutes
Semi major axis: 7355 km
RCS: 1.705 m2 (large)
Launch date: October 26, 1983
Source: Commonwealth of Independent States (former USSR) (CIS)
Launch site: PLESETSK MISSILE AND SPACE COMPLEX (PKMTR)
aabbcc
Your satellite tracking list
Your tracking list is empty




NASA's NSSDC Master Catalog

Two Line Element Set (TLE):
1 14450U 83108A   18228.51661367 +.00000015 +00000-0 -61995-6 0  9993
2 14450 082.9276 239.9590 0044356 080.7942 071.9532 13.76237518564015
Source of the keplerian elements: AFSPC